CW8541 Weather Reports


Display with metric or nautical units.
time (UTC)temp
F
wind
direction
speed
MPH
gust
MPH
rain 1hr
in
rain 24hr
in
rain mn
in
humidity
%
barometer
mb
20180523015455 87 234 8.0 0.0 0.00 0.00 0.00 5 1002.5
20180523014955 87 228 6.0 0.0 0.00 0.00 0.00 7 1002.4
20180523014455 87 226 5.0 0.0 0.00 0.00 0.00 6 1002.4
20180523013955 87 229 6.0 0.0 0.00 0.00 0.00 4 1002.4
20180523013455 88 202 4.0 0.0 0.00 0.00 0.00 4 1002.2
20180523012955 88 162 5.0 0.0 0.00 0.00 0.00 4 1002.3
20180523012455 88 210 3.0 0.0 0.00 0.00 0.00 4 1002.3
20180523011955 88 160 8.0 0.0 0.00 0.00 0.00 4 1002.4
20180523011455 89 213 5.0 0.0 0.00 0.00 0.00 5 1002.1
20180523010955 88 238 7.0 0.0 0.00 0.00 0.00 4 1002.1
20180523010455 88 189 4.0 0.0 0.00 0.00 0.00 5 1002.0
20180523005955 88 148 6.0 0.0 0.00 0.00 0.00 4 1002.0
20180523005455 88 164 10.0 0.0 0.00 0.00 0.00 4 1002.0
20180523004955 90 212 7.0 0.0 0.00 0.00 0.00 4 1001.8
20180523004455 89 155 12.0 0.0 0.00 0.00 0.00 4 1001.9
20180523003955 90 228 8.0 0.0 0.00 0.00 0.00 4 1001.8
20180523003455 90 183 6.0 0.0 0.00 0.00 0.00 4 1001.7
20180523002955 89 209 3.0 0.0 0.00 0.00 0.00 4 1001.8
20180523002455 89 130 6.0 0.0 0.00 0.00 0.00 4 1001.7
20180523001955 88 166 9.0 0.0 0.00 0.00 0.00 4 1002.1
20180523001455 90 238 3.0 0.0 0.00 0.00 0.00 4 1001.9
20180523000955 89 256 10.0 0.0 0.00 0.00 0.00 4 1001.7
20180523000455 90 233 4.0 0.0 0.00 0.00 0.00 4 1001.8
20180522235955 89 193 7.0 0.0 0.00 0.00 0.00 4 1001.6
20180522235455 88 185 7.0 0.0 0.00 0.00 0.00 4 1001.7
20180522234955 88 227 9.0 0.0 0.00 0.00 0.00 4 1002.0
20180522234455 90 243 7.0 0.0 0.00 0.00 0.00 3 1001.8
20180522233955 88 196 8.0 0.0 0.00 0.00 0.00 4 1001.8
20180522233455 90 241 10.0 0.0 0.00 0.00 0.00 3 1001.7
20180522232955 91 194 7.0 0.0 0.00 0.00 0.00 3 1001.7
20180522232455 89 183 8.0 0.0 0.00 0.00 0.00 4 1001.5
20180522231955 92 202 11.0 0.0 0.00 0.00 0.00 3 1001.9
20180522231455 91 234 7.0 0.0 0.00 0.00 0.00 4 1001.9
20180522230955 90 175 7.0 0.0 0.00 0.00 0.00 4 1001.8
20180522230455 90 218 13.0 0.0 0.00 0.00 0.00 3 1001.7
20180522225955 91 147 7.0 0.0 0.00 0.00 0.00 3 1001.8
20180522225454 90 241 9.0 0.0 0.00 0.00 0.00 3 1002.0
20180522224955 90 200 5.0 0.0 0.00 0.00 0.00 3 1002.0
20180522224454 90 170 8.0 0.0 0.00 0.00 0.00 4 1002.1
20180522223955 88 105 6.0 0.0 0.00 0.00 0.00 3 1001.9
20180522223455 89 177 13.0 0.0 0.00 0.00 0.00 3 1002.2
20180522222954 91 197 4.0 0.0 0.00 0.00 0.00 3 1002.1
20180522222455 89 113 3.0 0.0 0.00 0.00 0.00 3 1002.1
20180522221954 88 206 11.0 0.0 0.00 0.00 0.00 3 1002.2
20180522221455 90 134 3.0 0.0 0.00 0.00 0.00 3 1002.1
20180522220955 90 254 8.0 0.0 0.00 0.00 0.00 3 1002.3
20180522220455 89 154 7.0 0.0 0.00 0.00 0.00 3 1002.1
20180522215954 90 238 4.0 0.0 0.00 0.00 0.00 3 1002.6
20180522215455 89 153 9.0 0.0 0.00 0.00 0.00 3 1002.7
20180522214955 90 232 5.0 0.0 0.00 0.00 0.00 3 1002.6
20180522214455 90 194 5.0 0.0 0.00 0.00 0.00 3 1002.8
20180522213955 89 135 8.0 0.0 0.00 0.00 0.00 3 1002.7
20180522213455 89 130 7.0 0.0 0.00 0.00 0.00 3 1002.9
20180522212956 88 214 11.0 0.0 0.00 0.00 0.00 3 1003.1
20180522212454 89 147 6.0 0.0 0.00 0.00 0.00 3 1002.8
20180522211956 87 57 10.0 0.0 0.00 0.00 0.00 3 1002.9
20180522211454 86 140 9.0 0.0 0.00 0.00 0.00 3 1002.9
20180522210954 87 154 9.0 0.0 0.00 0.00 0.00 3 1003.3
20180522210455 92 197 4.0 0.0 0.00 0.00 0.00 3 1003.1
20180522205955 89 236 13.0 0.0 0.00 0.00 0.00 3 1003.4
20180522205455 87 280 4.0 0.0 0.00 0.00 0.00 3 1003.3
20180522204955 88 251 1.0 0.0 0.00 0.00 0.00 3 1003.4
20180522204455 86 192 11.0 0.0 0.00 0.00 0.00 4 1003.6
20180522203955 88 124 11.0 0.0 0.00 0.00 0.00 3 1003.5
20180522203455 86 154 5.0 0.0 0.00 0.00 0.00 3 1003.4
20180522202955 87 216 9.0 0.0 0.00 0.00 0.00 4 1003.7
20180522202455 88 193 7.0 0.0 0.00 0.00 0.00 3 1003.5
20180522201955 86 147 9.0 0.0 0.00 0.00 0.00 3 1003.5
20180522201455 88 204 8.0 0.0 0.00 0.00 0.00 3 1003.2
20180522200955 87 121 4.0 0.0 0.00 0.00 0.00 3 1003.9
20180522200455 87 140 6.0 0.0 0.00 0.00 0.00 3 1003.7
20180522195955 87 131 2.0 0.0 0.00 0.00 0.00 3 1003.5
20180522195455 87 221 11.0 0.0 0.00 0.00 0.00 3 1003.9
20180522194955 88 130 10.0 0.0 0.00 0.00 0.00 3 1003.9
20180522194455 88 169 4.0 0.0 0.00 0.00 0.00 3 1003.7
20180522193955 90 286 3.0 0.0 0.00 0.00 0.00 3 1003.9
20180522193455 90 230 1.0 0.0 0.00 0.00 0.00 3 1003.9
20180522192955 88 226 6.0 0.0 0.00 0.00 0.00 3 1003.8
20180522192455 88 197 6.0 0.0 0.00 0.00 0.00 3 1003.9
20180522191955 85 175 4.0 0.0 0.00 0.00 0.00 3 1004.2
20180522191455 87 161 2.0 0.0 0.00 0.00 0.00 3 1004.2
20180522190955 83 194 12.0 0.0 0.00 0.00 0.00 4 1003.8
20180522190455 85 137 7.0 0.0 0.00 0.00 0.00 3 1004.4
20180522185955 86 215 6.0 0.0 0.00 0.00 0.00 3 1004.3
20180522185455 84 148 7.0 0.0 0.00 0.00 0.00 3 1004.3
20180522184955 86 181 10.0 0.0 0.00 0.00 0.00 3 1004.1
20180522184455 85 138 7.0 0.0 0.00 0.00 0.00 3 1004.5
20180522183955 83 212 10.0 0.0 0.00 0.00 0.00 3 1004.3
20180522183455 88 199 4.0 0.0 0.00 0.00 0.00 3 1004.2
20180522182955 86 143 4.0 0.0 0.00 0.00 0.00 3 1004.5
20180522182455 86 159 5.0 0.0 0.00 0.00 0.00 3 1004.4
20180522181955 90 157 0.0 0.0 0.00 0.00 0.00 3 1004.6
20180522181455 85 120 4.0 0.0 0.00 0.00 0.00 3 1004.9
20180522180955 87 209 0.0 0.0 0.00 0.00 0.00 5 1004.8
20180522180455 86 188 3.0 0.0 0.00 0.00 0.00 6 1004.8
20180522175955 87 217 0.0 0.0 0.00 0.00 0.00 4 1004.9
20180522175455 85 164 9.0 0.0 0.00 0.00 0.00 6 1004.6
20180522174955 84 129 7.0 0.0 0.00 0.00 0.00 3 1004.7
20180522174455 82 216 5.0 0.0 0.00 0.00 0.00 7 1004.5
20180522173955 82 154 7.0 0.0 0.00 0.00 0.00 7 1004.7
20180522173455 84 185 7.0 0.0 0.00 0.00 0.00 7 1004.7
20180522172955 82 173 9.0 0.0 0.00 0.00 0.00 7 1004.9
20180522172455 86 209 4.0 0.0 0.00 0.00 0.00 7 1005.0
20180522171955 82 182 10.0 0.0 0.00 0.00 0.00 7 1005.1
20180522171455 82 161 7.0 0.0 0.00 0.00 0.00 7 1005.1
20180522170955 85 208 5.0 0.0 0.00 0.00 0.00 6 1005.1
20180522170455 82 189 2.0 0.0 0.00 0.00 0.00 7 1005.0
20180522165955 83 161 8.0 0.0 0.00 0.00 0.00 6 1005.2
20180522165455 83 189 6.0 0.0 0.00 0.00 0.00 6 1005.0
20180522164955 81 78 6.0 0.0 0.00 0.00 0.00 7 1004.7
20180522164454 85 192 0.0 0.0 0.00 0.00 0.00 6 1004.9
20180522163955 83 76 0.0 0.0 0.00 0.00 0.00 6 1005.0
20180522163455 81 134 4.0 0.0 0.00 0.00 0.00 6 1005.0
20180522162955 82 57 6.0 0.0 0.00 0.00 0.00 6 1005.1
20180522162454 84 231 3.0 0.0 0.00 0.00 0.00 6 1005.1
20180522161955 80 101 6.0 0.0 0.00 0.00 0.00 6 1005.1
20180522161454 79 117 3.0 0.0 0.00 0.00 0.00 6 1005.2
20180522160955 82 105 0.0 0.0 0.00 0.00 0.00 6 1005.1
20180522160455 81 76 4.0 0.0 0.00 0.00 0.00 6 1005.2
20180522155955 80 224 3.0 0.0 0.00 0.00 0.00 6 1005.4
20180522155454 80 179 1.0 0.0 0.00 0.00 0.00 6 1005.4
20180522154954 81 35 0.0 0.0 0.00 0.00 0.00 6 1005.4
20180522154455 79 130 2.0 0.0 0.00 0.00 0.00 6 1005.5
20180522153955 82 171 0.0 0.0 0.00 0.00 0.00 6 1005.3
20180522153454 80 95 3.0 0.0 0.00 0.00 0.00 6 1005.6
20180522152954 80 262 1.0 0.0 0.00 0.00 0.00 6 1005.8
20180522152455 81 182 0.0 0.0 0.00 0.00 0.00 6 1005.8
20180522151955 78 99 4.0 0.0 0.00 0.00 0.00 6 1005.8
20180522151455 79 340 0.0 0.0 0.00 0.00 0.00 6 1005.8
20180522150955 79 94 0.0 0.0 0.00 0.00 0.00 6 1005.9
20180522150454 77 96 1.0 0.0 0.00 0.00 0.00 6 1005.7
20180522145954 79 96 0.0 0.0 0.00 0.00 0.00 6 1006.0
20180522145454 78 121 0.0 0.0 0.00 0.00 0.00 6 1005.8
20180522144955 78 59 0.0 0.0 0.00 0.00 0.00 6 1005.9
20180522144455 81 8 0.0 0.0 0.00 0.00 0.00 6 1005.8
20180522143954 74 17 1.0 0.0 0.00 0.00 0.00 6 1005.8
20180522143454 78 341 0.0 0.0 0.00 0.00 0.00 6 1006.2
20180522142954 74 341 0.0 0.0 0.00 0.00 0.00 6 1006.1
20180522142454 74 340 0.0 0.0 0.00 0.00 0.00 6 1005.9
20180522141954 76 344 0.0 0.0 0.00 0.00 0.00 6 1006.2
20180522141454 74 344 0.0 0.0 0.00 0.00 0.00 6 1006.4
20180522140955 79 281 0.0 0.0 0.00 0.00 0.00 6 1006.3
20180522140455 77 281 0.0 0.0 0.00 0.00 0.00 6 1006.4
20180522135954 73 281 0.0 0.0 0.00 0.00 0.00 6 1006.3
20180522135454 73 288 0.0 0.0 0.00 0.00 0.00 6 1006.4
20180522134954 71 288 0.0 0.0 0.00 0.00 0.00 8 1006.9
20180522134454 70 279 0.0 0.0 0.00 0.00 0.00 7 1006.8
20180522133954 70 283 0.0 0.0 0.00 0.00 0.00 6 1006.6
20180522133454 69 302 0.0 0.0 0.00 0.00 0.00 9 1006.4
20180522132955 68 302 0.0 0.0 0.00 0.00 0.00 8 1006.4
20180522132745 68 141 0.0 0.0 0.00 0.00 0.00 9 1006.8